Johnstown, PA

3:01 PM EST on February 21, 2017 (GMT -0500)
Johnstown-Cambria County

Weather History for KJST - August, 2013

Change the Weather History Date:

Saturday, August 3, 2013

  Actual Average Record
Temperature  
Mean Temperature 63 °F 69 °F  
Max Temperature 68 °F 78 °F 100 °F (1930)
Min Temperature 57 °F 60 °F 45 °F (1976)
Degree Days  
Heating Degree Days 2 0  
Month to date heating degree days 2 0  
Since 1 June heating degree days 88 87  
Since 1 July heating degree days 25 13  
Cooling Degree Days 0 5  
Month to date cooling degree days 3 15  
Year to date cooling degree days 274 258  
Since 1 June cooling degree days 233 240  
Growing Degree Days 14 (Base 50)    
Moisture  
Dew Point 58 °F    
Average Humidity 85    
Maximum Humidity 97    
Minimum Humidity 73    
Precipitation  
Precipitation 0.02 in 0.12 in 1.72 in (1935)
Month to date precipitation 0.05 0.36  
Year to date precipitation 19.44 20.85  
Sea Level Pressure  
Sea Level Pressure 29.99 in    
Wind  
Wind Speed 9 mph (WSW)    
Max Wind Speed 23 mph    
Max Gust Speed 36 mph    
Visibility 9 miles    
Events Rain    
T = Trace of Precipitation, MM = Missing Value Source: NWS Daily Summary

Daily Weather History Graph

Daily Weather History Graph

Search for Another Location

Airport or City:

Trip Planner

Search our weather history database for the weather conditions in past years. The results will help you decide how hot, cold, wet, or windy it might be!

Date:

Astronomy

Aug. 03, 2013 Rise Set
Actual Time 6:15 AM EDT 8:27 PM EDT
Civil Twilight 5:44 AM EDT 8:57 PM EDT
Nautical Twilight 5:07 AM EDT 9:34 PM EDT
Astronomical Twilight 4:26 AM EDT 10:15 PM EDT
Moon 3:22 AM EDT (8/3) 6:08 PM EDT (8/3)
Length of Visible Light 15h 12m
Length of Day
14h 12m
Waning Crescent, 9% of the Moon is Illuminated
Aug 3
Waning Crescent
Aug 6
New
Aug 14
First Quarter
Aug 20
Full
Aug 28
Last Quarter

Hourly Weather History & Observations

Time (EDT) Temp. Dew Point Humidity Pressure Visibility Wind Dir Wind Speed Gust Speed Precip Events Conditions
12:54 AM 64.9 °F 57.0 °F 75% 29.97 in 10.0 mi SW 8.1 mph - N/A   Mostly Cloudy
1:54 AM 66.9 °F 57.0 °F 70% 29.95 in 10.0 mi WSW 11.5 mph 19.6 mph N/A   Overcast
2:54 AM 66.9 °F 57.0 °F 70% 29.94 in 10.0 mi West 20.7 mph 29.9 mph N/A   Mostly Cloudy
3:54 AM 63.0 °F 59.0 °F 87% 29.96 in 10.0 mi West 16.1 mph 25.3 mph 0.00 in Rain Light Rain
4:27 AM 62.6 °F 59.0 °F 88% 30.01 in 7.0 mi West 15.0 mph 25.3 mph 0.00 in Rain Light Rain
4:52 AM 60.8 °F 59.0 °F 94% 30.01 in 10.0 mi West 12.7 mph 19.6 mph 0.00 in Rain Light Rain
4:54 AM 61.0 °F 59.0 °F 93% 29.98 in 10.0 mi West 10.4 mph 19.6 mph 0.00 in Rain Light Rain
5:54 AM 61.0 °F 59.0 °F 93% 29.98 in 8.0 mi West 12.7 mph 21.9 mph 0.01 in Rain Light Rain
6:07 AM 60.8 °F 59.0 °F 94% 30.01 in 10.0 mi West 11.5 mph - 0.00 in Rain Light Rain
6:35 AM 60.8 °F 59.0 °F 94% 30.01 in 10.0 mi WSW 6.9 mph - 0.00 in   Mostly Cloudy
6:54 AM 61.0 °F 59.0 °F 93% 29.98 in 8.0 mi West 8.1 mph 17.3 mph 0.00 in   Overcast
7:14 AM 60.8 °F 57.2 °F 88% 30.01 in 8.0 mi WSW 6.9 mph - N/A   Overcast
7:41 AM 60.8 °F 57.2 °F 88% 30.02 in 9.0 mi WSW 8.1 mph - N/A   Overcast
7:54 AM 61.0 °F 57.9 °F 90% 29.99 in 9.0 mi SW 6.9 mph - N/A   Overcast
8:54 AM 61.0 °F 59.0 °F 93% 29.99 in 8.0 mi West 5.8 mph - 0.01 in Rain Light Rain
9:54 AM 61.0 °F 59.0 °F 93% 29.99 in 8.0 mi West 11.5 mph - 0.00 in   Overcast
10:54 AM 62.1 °F 60.1 °F 93% 29.99 in 6.0 mi West 10.4 mph - 0.00 in Rain Light Rain
11:54 AM 62.1 °F 60.1 °F 93% 30.00 in 10.0 mi West 10.4 mph - 0.00 in   Overcast
12:54 PM 63.0 °F 60.1 °F 90% 29.99 in 10.0 mi WSW 8.1 mph - N/A   Overcast
1:54 PM 64.0 °F 59.0 °F 84% 29.99 in 10.0 mi WSW 9.2 mph - 0.00 in Rain Light Rain
2:10 PM 64.4 °F 59.0 °F 83% 30.02 in 10.0 mi WSW 10.4 mph - 0.00 in Rain Light Rain
2:54 PM 66.0 °F 59.0 °F 78% 29.98 in 10.0 mi SW 9.2 mph - 0.00 in Rain Light Rain
3:08 PM 66.2 °F 59.0 °F 78% 30.00 in 10.0 mi SW 11.5 mph 17.3 mph 0.00 in   Scattered Clouds
3:54 PM 68.0 °F 59.0 °F 73% 29.96 in 10.0 mi SW 9.2 mph - 0.00 in   Mostly Cloudy
4:54 PM 66.9 °F 59.0 °F 76% 29.96 in 10.0 mi SW 10.4 mph - N/A   Mostly Cloudy
5:10 PM 66.2 °F 59.0 °F 78% 29.99 in 10.0 mi SSW 9.2 mph - N/A   Mostly Cloudy
5:18 PM 66.2 °F 57.2 °F 73% 29.99 in 10.0 mi WSW 6.9 mph - N/A   Mostly Cloudy
5:28 PM 66.2 °F 57.2 °F 73% 30.00 in 10.0 mi WSW 8.1 mph - N/A   Overcast
5:54 PM 66.0 °F 59.0 °F 78% 29.97 in 10.0 mi SW 5.8 mph - N/A   Overcast
6:15 PM 66.2 °F 59.0 °F 78% 29.99 in 10.0 mi SW 4.6 mph - N/A   Overcast
6:54 PM 66.0 °F 59.0 °F 78% 29.97 in 10.0 mi WSW 8.1 mph - N/A   Overcast
7:31 PM 66.2 °F 60.8 °F 83% 30.00 in 10.0 mi SW 4.6 mph - N/A   Overcast
7:54 PM 64.9 °F 59.0 °F 81% 29.99 in 10.0 mi West 4.6 mph - N/A   Mostly Cloudy
8:54 PM 62.1 °F 57.9 °F 86% 30.00 in 10.0 mi West 4.6 mph - N/A   Scattered Clouds
9:54 PM 61.0 °F 59.0 °F 93% 30.01 in 8.0 mi WNW 6.9 mph - N/A   Clear
10:54 PM 60.1 °F 55.9 °F 86% 30.01 in 10.0 mi NW 6.9 mph - N/A   Clear
11:54 PM 57.9 °F 53.1 °F 84% 30.02 in 10.0 mi NW 6.9 mph - N/A   Clear